Lapse_Rate
-1.2 -1.5 -1.7 -1.8 -1.8 -1.8 -1.6 -1.5 -1.5 -1.5 -1.6 -1.8 -1.9 -2.0 -2.2 -2.8 -3.0 -2.2 -0.1 2.1 1.1 2.3 1.8 3.2 4.8 4.4 4.4 4.5 4.7 2.0 6.5 6.5 6.5 6.5 6.5 5.1 6.4 6.4 6.7 6.5 6.2 7.0 5.8 5.2 5.4
-1.1 -1.3 -1.6 -2.0 -2.2 -2.1 -2.0 -1.8 -1.7 -1.6 -1.7 -1.8 -1.9 -1.9 -2.1 -2.8 -3.1 -2.3 -0.4 1.2 1.3 2.1 4.3 5.3 5.2 4.5 2.8 4.9 3.6 4.4 6.6 6.5 6.4 6.4 6.5 6.0 5.6 6.0 6.6 6.8 6.9 6.2 6.3 6.3 6.0
-1.4 -1.4 -1.6 -1.9 -2.3 -2.6 -2.4 -2.2 -2.0 -1.9 -1.9 -1.9 -1.8 -1.9 -2.2 -2.7 0.9 2.9 3.0 0.7 1.3 2.2 5.0 5.2 4.8 5.2 5.2 4.6 5.1 5.3 6.5 6.5 5.4 4.5 5.8 6.0 5.7 6.1 6.6 6.5 6.6 6.6 6.9 7.2 6.6
-1.7 -1.6 -1.8 -2.1 -2.4 -2.7 -2.9 -2.6 -2.3 -2.1 -2.3 -2.2 -2.2 -2.2 -2.2 -1.3 6.5 5.6 1.6 0.5 2.1 3.6 5.0 5.1 4.7 4.9 6.2 6.5 5.0 6.4 5.1 5.3 4.5 4.6 5.4 6.0 5.4 6.1 6.1 6.3 7.5 7.6 7.5 5.9 4.2
-1.9 -2.0 -2.1 -2.4 -2.6 -2.7 -3.2 -3.1 -2.9 -2.9 -2.9 -2.7 -2.6 -2.4 -0.8 3.4 1.7 2.7 0.8 1.1 2.3 3.9 5.0 5.2 5.0 4.8 6.5 6.2 6.0 6.4 6.2 4.1 2.9 2.1 4.8 5.4 6.3 6.7 6.5 7.1 7.1 5.8 4.8 3.7 2.9
-2.2 -2.4 -2.5 -2.6 -2.9 -3.0 -3.1 -3.6 -3.6 -3.7 -3.5 -3.3 -2.9 -2.3 2.4 5.8 4.2 2.2 1.2 1.0 3.0 3.6 4.0 3.5 4.4 3.6 5.7 6.0 6.3 5.5 5.6 5.1 4.4 4.6 6.3 6.4 6.1 6.2 7.1 6.8 5.8 4.5 3.4 2.9 2.8
-2.3 -2.7 -2.9 -3.0 -3.1 -3.3 -3.3 -3.8 -4.0 -4.1 -3.8 -3.3 -2.9 -0.5 2.3 2.4 3.9 2.2 1.4 2.5 2.2 3.3 4.4 3.2 4.2 5.0 4.5 6.5 5.1 5.3 6.5 6.4 6.0 5.3 6.4 5.4 6.5 6.5 7.2 6.4 6.0 5.2 4.9 4.1 3.5
-2.3 -2.6 -2.9 -3.1 -3.4 -3.6 -3.5 -4.1 -4.6 -4.3 -3.8 -3.1 -2.6 0.2 1.9 2.6 3.1 3.6 1.8 3.1 3.2 2.7 4.3 4.1 3.9 4.8 5.7 5.3 4.7 6.5 6.5 6.5 6.5 6.0 6.1 6.0 6.5 6.5 7.0 5.6 6.5 6.5 6.1 5.2 4.9
-2.3 -2.7 -2.9 -3.2 -3.6 -3.9 -4.2 -4.7 -4.7 -4.1 -2.9 -2.5 -1.0 2.0 2.9 3.7 4.4 3.9 3.6 4.1 5.9 4.4 3.4 5.7 6.1 4.4 4.2 6.5 6.5 6.5 6.5 6.5 6.5 5.6 6.5 6.5 6.5 6.6 6.8 6.3 6.7 6.2 5.9 5.6 4.5
-2.3 -2.6 -3.1 -3.3 -3.7 -4.5 -4.8 -5.0 -3.9 -3.4 -2.0 -0.2 3.0 4.5 3.1 5.7 5.7 6.3 3.0 4.7 5.7 6.2 5.9 5.8 1.7 6.5 6.5 6.5 6.5 6.5 6.5 6.5 6.5 6.5 6.5 6.5 6.5 6.5 6.6 6.7 6.5 6.3 5.4 4.9 4.2
-2.6 -2.9 -3.3 -3.7 -3.9 -4.7 -6.0 -2.5 2.0 3.3 3.0 4.3 4.1 3.9 4.6 6.1 6.1 6.8 6.0 5.5 6.5 4.6 6.5 5.5 6.5 6.5 6.4 6.5 6.5 6.5 6.5 6.5 6.5 6.5 6.5 6.5 6.5 6.5 6.2 6.3 6.1 5.5 4.8 4.9 4.7
-2.5 -3.1 -3.5 -3.9 -4.3 -5.4 -6.7 2.7 5.4 6.3 5.0 3.6 3.8 4.4 4.9 6.3 6.0 5.3 6.4 6.1 6.1 6.5 6.5 6.5 6.5 6.5 6.5 6.5 6.5 6.5 6.5 6.5 6.5 6.5 6.5 6.5 6.5 6.5 6.2 6.2 5.9 5.7 5.5 4.9 4.8
-2.8 -3.1 -3.7 -4.4 -5.0 -5.4 -0.8 3.0 2.9 3.2 5.0 4.5 4.3 4.3 4.4 4.3 4.8 4.5 5.7 5.1 6.4 6.5 6.5 6.5 6.5 6.4 6.5 6.5 6.5 6.5 6.5 6.5 6.5 6.5 6.5 6.5 6.5 6.5 6.4 6.2 6.4 6.3 5.8 5.2 4.3
-2.8 -3.2 -3.5 -4.8 -1.7 -3.7 -0.3 2.8 1.6 1.2 6.5 6.5 6.1 5.3 5.7 5.9 6.1 5.3 4.9 5.0 6.3 6.4 6.5 6.5 6.3 6.5 6.5 6.4 6.5 6.5 6.5 6.5 6.5 6.5 6.5 6.5 6.5 6.5 6.5 6.5 6.4 5.9 5.2 4.8 5.1
-3.2 -3.1 -3.6 -4.1 -5.4 -1.9 3.3 -1.3 -0.0 2.7 6.5 6.5 6.2 5.9 4.1 5.2 6.0 6.4 4.5 5.5 6.5 6.5 6.5 6.5 6.5 6.5 6.5 6.5 6.5 6.5 6.5 6.5 6.5 6.5 6.5 6.5 6.5 6.5 6.5 6.5 6.5 5.6 5.0 4.7 4.6
-3.5 -3.3 -3.9 -4.2 -6.6 -4.6 -2.7 -2.9 1.7 6.5 6.5 6.4 6.0 6.3 6.4 6.0 6.1 6.2 6.4 6.3 5.2 6.5 6.5 6.5 5.6 6.4 6.5 6.6 6.5 6.5 6.5 6.5 6.4 6.5 6.5 6.5 6.5 6.5 6.5 6.5 6.5 5.8 5.4 5.2 4.8
-3.8 -4.2 -4.5 -3.4 -0.8 -1.1 -2.4 1.4 6.5 6.5 6.5 6.5 6.5 6.5 6.5 6.5 6.5 6.5 6.5 6.5 6.5 6.5 6.5 6.5 6.5 6.5 6.3 6.5 6.5 6.5 6.5 6.5 6.5 6.5 6.5 6.5 6.5 6.5 6.5 6.5 6.3 6.2 5.4 5.0 4.4
-4.6 -5.2 -5.8 -5.4 -3.9 -0.8 0.6 5.9 6.5 6.6 6.5 6.4 6.5 6.5 6.5 6.5 6.5 6.5 6.6 6.5 6.5 6.5 6.5 6.5 6.5 6.5 6.5 6.5 6.5 6.5 6.5 6.5 6.5 6.5 6.5 6.5 6.5 6.5 6.5 5.9 4.9 5.4 4.5 4.2 3.8
-5.2 -6.3 -5.1 -3.1 -3.8 -1.1 2.3 6.5 6.5 6.5 6.5 6.5 6.5 6.5 6.5 6.5 6.5 6.5 6.5 6.5 6.5 6.5 6.5 6.5 6.5 6.5 6.5 6.5 6.5 6.5 6.5 6.5 6.5 6.5 6.5 6.5 6.5 6.5 6.5 6.5 6.1 4.8 4.2 3.8 3.5
-6.3 -5.9 -1.9 0.4 -0.8 0.5 5.3 6.5 6.5 6.5 6.5 6.5 6.5 6.5 6.5 6.5 6.5 6.5 6.5 6.5 6.5 6.5 5.7 6.5 6.5 6.5 6.5 6.2 6.2 6.5 6.5 6.5 6.5 6.5 6.5 6.5 6.5 6.5 6.5 6.5 6.5 6.0 4.7 3.6 2.9
-5.0 0.3 2.4 1.0 1.1 1.1 6.5 6.5 6.5 6.2 6.3 6.5 6.5 6.5 6.5 6.5 6.5 6.5 6.6 6.6 6.5 6.5 6.3 6.5 6.5 6.5 6.5 6.5 6.5 6.5 6.5 6.5 6.5 6.5 6.5 6.5 6.5 6.5 6.5 6.5 6.5 6.1 4.4 3.7 3.2
-3.7 6.5 3.3 2.4 4.4 4.8 6.5 6.5 5.5 6.3 6.1 6.5 6.5 6.5 6.5 6.5 6.5 6.5 6.4 6.5 5.8 5.6 6.5 6.5 6.5 6.5 6.5 6.5 6.5 6.5 6.5 6.5 6.5 6.5 6.5 6.5 6.5 6.5 6.5 6.3 6.1 5.1 4.3 3.2 2.1
-1.0 -0.4 0.3 2.9 6.6 6.5 6.2 6.5 6.3 6.5 6.5 6.5 6.5 6.5 6.5 6.5 6.5 6.5 6.5 6.1 5.1 6.4 6.5 6.5 6.5 6.5 6.5 6.5 6.5 6.5 6.5 6.5 6.5 6.5 6.5 6.5 6.5 6.5 5.8 5.8 5.0 4.2 3.4 3.0 2.7
0.9 6.5 1.8 0.6 2.6 6.4 6.5 6.5 6.5 6.0 6.3 6.0 6.5 6.4 6.5 6.5 6.5 6.5 6.5 6.4 5.6 5.8 3.8 4.0 6.5 6.5 6.5 6.5 6.5 6.5 6.5 6.5 6.5 6.5 6.5 6.5 6.5 6.4 6.5 6.5 5.3 5.0 3.7 3.5 2.8
2.2 5.8 5.7 6.5 6.1 6.4 6.4 6.5 6.5 6.5 5.9 5.0 6.5 6.5 6.5 6.5 6.5 6.5 6.5 6.5 6.1 5.1 5.6 6.5 6.5 6.5 6.5 6.5 6.5 6.5 6.5 6.5 6.5 6.5 6.5 6.5 6.5 6.5 6.5 6.5 5.9 4.0 3.8 3.9 3.2
3.4 4.7 3.3 4.5 4.8 6.4 6.5 6.5 6.5 6.5 6.6 6.6 6.5 6.5 6.5 6.5 6.5 6.5 6.5 6.4 6.5 6.4 6.5 6.4 6.5 6.5 6.5 6.5 6.5 6.5 6.5 6.5 6.5 6.5 6.5 6.5 6.5 6.5 5.3 5.0 6.1 5.2 4.8 4.1 3.2
1.1 3.0 4.5 4.8 6.1 6.5 6.5 6.5 6.5 6.4 5.7 5.9 6.4 6.5 6.5 6.5 5.4 2.9 3.0 3.3 5.4 6.5 6.5 6.5 6.5 6.5 6.5 6.5 6.5 6.5 6.5 6.5 6.5 6.5 6.5 6.5 6.5 6.0 6.5 6.3 6.0 5.4 4.9 4.1 3.7
Wind_Speed
19 18 18 17 16 15 14 14 14 13 11 11 11 12 13 14 15 1 6 11 5 9 4 7 5 4 3 2 2 4 4 1 5 4 4 4 3 5 9 5 3 1 3 9 9
20 20 19 18 18 17 16 15 13 12 12 11 12 12 12 12 3 6 12 13 17 4 2 1 2 4 3 1 2 5 4 9 8 5 1 1 4 7 4 5 8 11 13 10 6
21 21 21 21 19 18 16 15 14 13 11 11 11 11 10 8 4 7 3 19 12 8 1 1 1 1 2 1 2 4 5 5 8 6 2 2 6 3 15 6 5 20 14 8 7
22 22 22 22 21 20 18 15 14 13 12 12 12 11 10 1 1 3 2 15 13 6 2 3 3 3 2 1 3 2 7 6 12 6 2 7 8 6 5 7 14 13 10 12 12
23 24 23 22 22 21 19 17 15 13 12 11 10 7 3 3 8 1 11 12 6 5 3 4 2 3 2 2 1 4 6 6 8 10 6 17 14 9 14 17 12 15 14 12 10
24 24 25 24 23 22 20 18 16 14 12 11 7 4 0 3 4 7 9 7 4 5 4 6 5 5 3 3 4 3 5 6 9 10 12 20 4 6 8 13 15 15 13 11 11
26 26 25 25 25 24 23 20 17 14 11 8 5 2 2 11 4 8 8 3 6 5 4 5 4 4 3 4 3 4 4 3 11 6 7 14 8 7 12 12 13 14 11 10 9
27 27 27 27 26 26 26 22 21 14 9 5 5 2 7 5 3 3 5 5 5 6 3 7 5 4 3 2 7 3 4 3 6 10 6 6 6 6 8 11 10 11 10 9 7
29 28 29 28 28 27 28 27 17 4 3 10 3 2 9 2 2 8 7 6 2 5 5 4 1 1 6 4 5 6 2 3 4 9 7 4 12 7 6 8 8 7 7 7 7
29 30 30 30 29 29 28 23 8 9 3 3 4 2 5 3 4 4 6 6 6 2 4 3 5 3 4 4 3 2 4 4 5 2 7 9 8 12 6 9 7 6 6 5 7
31 31 32 32 30 27 13 1 2 1 2 8 6 4 4 4 4 4 5 6 3 6 1 3 4 4 7 5 3 2 2 6 7 6 9 11 16 10 7 8 6 5 5 5 5
33 33 34 34 33 27 3 0 1 1 7 10 10 7 7 3 5 6 4 5 3 3 1 5 5 9 5 5 6 3 4 4 10 11 12 14 12 6 6 4 4 5 5 4 3
32 32 33 36 37 1 2 5 3 6 1 7 6 5 6 8 7 9 8 3 3 1 3 5 9 3 2 2 4 2 2 1 7 14 15 16 6 5 2 3 5 4 4 4 6
33 32 31 36 1 4 5 1 8 4 4 6 4 7 5 5 5 7 8 6 1 7 4 6 5 6 3 3 5 4 3 8 12 7 6 5 4 5 7 5 6 6 6 6 5
34 31 28 17 6 3 2 6 6 3 3 2 3 1 5 8 3 4 4 5 5 4 3 7 4 7 5 1 4 3 3 2 4 4 5 3 4 2 8 6 7 7 7 6 6
37 33 27 0 2 8 15 8 3 5 6 4 6 5 6 3 3 2 3 3 3 2 1 6 4 3 5 3 4 4 5 8 5 3 2 1 5 5 9 9 8 6 7 7 7
41 38 16 4 5 3 4 3 4 3 5 3 5 5 6 5 3 4 5 4 4 3 2 4 3 2 3 5 5 9 7 3 4 4 5 4 4 4 11 6 14 13 10 8 8
45 40 5 7 14 5 3 5 3 4 6 5 2 5 8 6 5 5 4 3 3 4 2 3 4 3 1 4 4 4 6 5 4 3 4 5 1 2 4 4 11 10 8 7 7
38 3 3 4 18 2 5 3 7 6 3 6 4 5 5 5 7 5 8 6 8 8 6 4 2 3 5 3 4 3 3 3 6 3 3 1 3 1 4 8 12 10 8 8 7
5 5 4 2 16 4 4 6 5 4 5 3 2 4 6 1 5 5 8 4 4 6 5 6 4 2 3 6 6 4 5 3 3 2 3 3 3 4 6 9 11 10 12 8 8
2 4 4 8 2 5 3 6 5 4 5 3 4 2 2 3 5 7 8 2 3 4 1 5 5 4 3 2 4 2 2 6 4 4 4 1 5 5 13 16 18 14 9 10 11
4 2 3 2 3 1 3 5 3 7 2 5 4 4 4 2 2 3 5 2 4 7 6 1 5 3 2 5 4 3 4 5 5 4 1 3 5 2 9 14 13 9 7 8 9
3 3 4 3 2 2 5 4 5 5 5 4 3 2 1 2 3 2 3 4 5 4 7 6 2 3 6 6 5 2 2 4 5 3 5 5 5 5 7 9 7 9 10 11 11
2 4 4 4 2 3 3 5 4 4 5 6 6 3 3 1 2 3 3 6 5 4 8 8 3 6 7 5 3 3 2 4 5 3 4 6 4 3 6 11 9 11 11 12 10
2 2 1 3 3 4 2 5 6 6 5 7 2 2 4 3 2 4 3 3 6 5 5 5 4 2 2 3 2 3 5 2 7 6 6 6 9 8 9 10 12 13 12 12 9
3 3 5 3 4 4 5 5 4 5 3 5 2 2 3 5 6 7 7 2 5 3 3 4 2 2 1 1 1 3 6 7 5 4 2 4 3 4 5 10 12 13 13 11 9
3 3 1 4 5 2 2 5 4 7 7 5 3 3 3 3 4 8 6 6 9 8 3 4 5 3 3 4 4 5 6 4 3 4 7 5 6 7 8 12 12 12 12 11 10
Wind_Direction
7 1 356 352 347 342 333 326 321 318 315 311 311 310 315 323 319 88 256 221 187 243 329 321 7 350 62 55 56 119 70 196 242 195 205 169 120 62 40 74 53 65 104 129 164
4 359 355 352 348 344 337 329 323 318 314 312 310 310 320 332 318 256 247 229 218 279 138 354 337 12 27 81 61 92 124 217 217 213 308 60 144 139 107 89 86 95 103 129 138
0 356 352 349 348 344 338 332 325 319 314 308 305 310 318 327 325 251 260 210 211 192 209 120 152 74 65 72 196 159 203 215 255 226 193 88 119 82 131 75 137 145 140 120 71
357 354 350 345 342 341 337 332 324 316 310 304 302 308 318 313 191 270 37 171 172 152 119 139 71 74 47 243 212 195 240 211 271 106 251 176 120 84 12 121 134 120 101 78 65
350 349 346 342 337 334 331 328 321 311 301 295 295 301 284 328 251 226 118 142 129 129 171 170 134 150 216 211 154 214 262 237 260 92 64 93 71 109 85 108 102 86 75 69 68
347 345 341 338 333 329 325 319 312 305 297 292 283 274 199 290 248 161 133 127 147 163 178 178 202 190 261 237 170 228 266 274 84 97 113 103 47 94 86 99 94 83 72 68 67
344 342 338 335 332 328 323 318 307 298 290 281 249 233 131 242 347 165 150 209 173 177 197 217 161 138 178 287 235 277 322 26 129 126 118 92 31 73 116 105 98 95 94 79 66
340 339 336 333 330 327 323 319 308 285 273 246 193 242 251 247 326 194 151 303 215 206 253 242 169 206 182 294 1 3 46 42 156 169 175 75 148 129 115 111 109 106 93 82 74
338 335 333 331 328 326 323 319 311 224 179 145 140 194 268 310 186 242 157 219 261 200 223 279 122 72 17 69 0 5 248 256 280 184 119 105 144 163 129 112 91 78 75 77 80
336 333 330 329 327 325 324 315 116 119 119 200 257 332 278 265 245 207 189 178 254 2 5 68 52 56 35 73 208 264 343 300 245 108 78 117 130 136 110 95 89 78 67 46 58
334 332 329 327 327 325 331 107 13 346 214 201 194 247 277 265 260 269 169 157 189 65 161 359 63 242 225 197 220 223 233 260 39 106 70 106 126 125 105 98 91 64 50 49 50
331 331 329 326 324 326 134 147 129 175 299 235 243 254 269 66 317 299 105 152 112 203 57 10 249 242 224 210 219 185 242 77 81 42 86 112 94 72 90 96 144 160 184 186 150
329 329 329 326 321 357 274 240 292 334 231 290 199 192 222 146 224 250 151 144 136 154 202 181 244 22 153 317 114 42 67 63 125 71 92 100 78 147 94 129 147 184 207 215 173
327 328 332 330 345 326 273 158 293 185 43 274 226 249 165 173 276 207 181 136 158 207 232 222 278 216 9 206 129 98 182 119 134 103 165 222 187 197 171 175 182 184 200 212 188
324 325 328 322 303 286 227 338 320 61 344 208 209 189 127 151 220 235 157 66 186 218 103 265 330 113 104 48 129 165 123 84 125 123 114 160 98 256 147 199 192 194 220 212 184
322 322 327 138 216 246 313 316 85 47 256 300 150 174 118 157 265 33 128 92 176 155 304 249 297 119 126 58 58 107 77 41 54 92 72 306 146 198 184 193 183 187 209 185 159
321 316 307 229 228 128 284 42 52 161 315 243 190 146 166 178 225 186 179 172 162 109 345 325 352 359 120 92 27 68 54 359 353 4 216 330 83 226 207 191 181 169 178 171 155
323 313 238 204 237 273 27 58 175 242 258 320 275 128 176 162 230 214 147 196 218 104 103 111 356 349 352 129 138 83 131 149 209 226 266 353 48 232 278 187 135 159 171 159 150
324 327 266 251 198 121 87 116 205 212 284 336 347 138 225 199 180 144 189 206 185 168 142 130 359 327 55 96 108 161 57 166 103 24 36 207 313 271 80 113 145 158 159 176 139
315 331 272 122 153 91 86 217 225 225 355 314 261 166 183 269 153 155 179 223 214 192 142 197 99 345 20 57 29 98 154 58 15 204 270 290 252 236 192 175 165 171 180 165 141
342 348 312 157 93 54 172 227 265 276 352 328 299 197 149 140 197 191 208 284 176 105 126 128 107 271 41 58 176 29 48 54 109 129 173 247 261 221 196 188 182 183 181 156 147
343 346 311 123 55 32 164 201 256 294 203 274 250 207 174 195 58 122 165 210 193 154 116 102 122 119 176 306 271 157 158 135 121 224 132 147 272 346 211 183 174 179 154 126 125
335 272 306 71 143 283 295 285 244 239 245 242 263 208 202 186 109 107 75 348 28 88 157 181 30 63 360 355 351 109 129 99 108 84 187 140 260 4 107 145 159 136 129 133 133
0 353 328 30 43 89 359 269 279 248 261 230 203 129 102 323 73 141 106 12 13 72 73 85 106 153 183 187 176 284 299 140 125 118 195 211 203 239 170 161 135 131 135 137 137
31 332 146 336 341 352 309 325 334 347 341 345 35 99 159 151 95 108 80 97 15 4 57 96 124 140 143 163 191 226 252 217 198 207 164 234 193 208 193 164 152 140 135 137 144
34 15 347 293 296 349 4 7 336 315 284 312 358 317 165 161 165 191 135 150 175 37 76 12 149 92 348 269 181 250 265 263 222 123 77 112 230 150 107 112 138 152 150 153 160
330 333 65 297 338 48 23 324 316 329 275 232 228 113 84 253 227 202 170 140 159 141 118 99 124 85 250 346 360 323 238 237 174 150 145 169 213 150 145 156 160 157 162 163 165